Regional Weather Roundup
Issued by NWS

Home | Current Version | Previous Version | Text Only | Print | Product List | Glossary Off
Versions: 1 2 3 4 5 6 7 8 9 10 11 12 13 14 15 16 17 18 19 20 21 22 23 24 25 26 27 28 29 30 31 32 33 34 35 36 37 38 39 40 41 42 43 44 45 46 47 48 49 50

000
ASUS43 KLMK 211710
RWRKY
KENTUCKY REGIONAL WEATHER ROUNDUP
NATIONAL WEATHER SERVICE LOUISVILLE KY
100 PM EDT TUE OCT 21 2014

NOTE "FAIR" INDICATES FEW OR NO CLOUDS BELOW 12,000 FEET
WITH NO SIGNIFICANT WEATHER AND/OR OBSTRUCTIONS TO VISIBILITY.

KYZ001>023-026-027-061>063-070>075-211800-
WESTERN AND SOUTH CENTRAL KENTUCKY

CITY           SKY/WX    TMP DP  RH WIND       PRES   REMARKS
PADUCAH        SUNNY     69  48  47 N12       30.09S
HENDERSON      SUNNY    N/A N/A N/A NE5       30.09S
OWENSBORO      SUNNY     63  44  49 NE9       30.09S
HOPKINSVILLE   SUNNY     68  48  49 NW10      30.07F
BOWLING GREEN  SUNNY     65  47  52 W3        30.08S
GLASGOW        SUNNY     65  43  44 CALM      30.07S
$$

KYZ024-025-028>034-038-045-046-053-211800-
NORTH CENTRAL KENTUCKY

CITY           SKY/WX    TMP DP  RH WIND       PRES   REMARKS
LOUISVILLE/SDF PTSUNNY   60  43  53 VRB7      30.08S
LOUISVILLE/LOU MOSUNNY   59  43  55 NW9       30.08S
FORT KNOX      PTSUNNY   60  44  55 N13G18    30.07S
$$

KYZ035>037-039>044-047>052-055>060-089>105-211800-
NORTHEAST KENTUCKY

CITY           SKY/WX    TMP DP  RH WIND       PRES   REMARKS
LEXINGTON      CLOUDY    59  43  55 NW10      30.05S
COVINGTON      CLOUDY    55  36  48 NW21      30.04S
FRANKFORT      CLOUDY    57  40  52 NW10G22   30.06S
$$

KYZ054-064>069-076>088-106>120-211800-
SOUTHEAST KENTUCKY

CITY           SKY/WX    TMP DP  RH WIND       PRES   REMARKS
JACKSON        CLOUDY    55  42  61 VRB5      30.02S
LONDON         CLOUDY    60  42  51 NW9       30.04S
SOMERSET       CLOUDY    59  43  55 NW7       30.07S
MIDDLESBORO    CLOUDY    61  46  57 N8G16     30.03F
MONTICELLO       N/A     65  44  46 NW9       30.07
$$




USA.gov is the U.S. government's official web portal to all federal, state and local government web resources and services.